TimeCDT,TemperatureF,Dew PointF,Humidity,Sea Level PressureIn,VisibilityMPH,Wind Direction,Wind SpeedMPH,Gust SpeedMPH,PrecipitationIn,Events,Conditions,WindDirDegrees,DateUTC
12:15 AM,60.8,51.8,72,29.49,10.0,Calm,Calm,-,N/A,,Scattered Clouds,0,2013-10-01 05:15:00
12:35 AM,62.6,51.8,68,29.49,10.0,Calm,Calm,-,N/A,,Scattered Clouds,0,2013-10-01 05:35:00
12:54 AM,62.6,51.8,68,29.49,10.0,Calm,Calm,-,N/A,,Scattered Clouds,0,2013-10-01 05:54:00
1:15 AM,62.6,51.8,68,29.54,10.0,WSW,25.3,40.3,N/A,,Scattered Clouds,250,2013-10-01 06:15:00
1:35 AM,62.6,50.0,63,29.56,10.0,West,17.3,27.6,N/A,,Scattered Clouds,270,2013-10-01 06:35:00
1:55 AM,60.8,51.8,72,29.58,10.0,West,15.0,23.0,N/A,Rain,Light Rain,270,2013-10-01 06:55:00
2:15 AM,55.4,51.8,88,29.56,10.0,WNW,8.1,-,N/A,Rain,Light Rain,290,2013-10-01 07:15:00
2:35 AM,55.4,51.8,88,29.56,10.0,Calm,Calm,-,N/A,,Mostly Cloudy,0,2013-10-01 07:35:00
2:55 AM,55.4,51.8,88,29.57,10.0,WSW,3.5,-,N/A,,Scattered Clouds,250,2013-10-01 07:55:00
3:15 AM,55.4,51.8,88,29.58,10.0,West,9.2,-,N/A,,Clear,260,2013-10-01 08:15:00
3:35 AM,55.4,50.0,82,29.59,10.0,West,9.2,-,N/A,,Scattered Clouds,270,2013-10-01 08:35:00
3:55 AM,55.4,50.0,82,29.59,10.0,West,10.4,-,N/A,,Clear,260,2013-10-01 08:55:00
4:15 AM,55.4,50.0,82,29.59,10.0,WSW,5.8,-,N/A,,Clear,240,2013-10-01 09:15:00
4:35 AM,53.6,50.0,88,29.60,10.0,WSW,6.9,-,N/A,,Clear,240,2013-10-01 09:35:00
4:55 AM,53.6,50.0,88,29.61,10.0,WSW,6.9,-,N/A,,Clear,240,2013-10-01 09:55:00
5:15 AM,53.6,48.2,82,29.62,10.0,SW,9.2,-,N/A,,Clear,230,2013-10-01 10:15:00
5:35 AM,51.8,48.2,88,29.63,10.0,SW,8.1,-,N/A,,Clear,230,2013-10-01 10:35:00
5:55 AM,51.8,48.2,88,29.65,10.0,WSW,8.1,-,N/A,,Clear,240,2013-10-01 10:55:00
6:14 AM,50.0,46.4,87,29.65,10.0,SW,9.2,-,N/A,,Clear,230,2013-10-01 11:14:00
6:35 AM,48.2,46.4,93,29.66,10.0,WSW,9.2,-,N/A,,Clear,240,2013-10-01 11:35:00
6:55 AM,48.2,44.6,87,29.67,10.0,SW,9.2,-,N/A,,Clear,230,2013-10-01 11:55:00
7:15 AM,48.2,44.6,87,29.67,10.0,SW,8.1,-,N/A,,Clear,230,2013-10-01 12:15:00
7:35 AM,46.4,42.8,87,29.68,10.0,SW,9.2,-,N/A,,Clear,230,2013-10-01 12:35:00
7:55 AM,46.4,42.8,87,29.69,10.0,SW,9.2,-,N/A,,Clear,230,2013-10-01 12:55:00
8:15 AM,48.2,42.8,82,29.70,10.0,SW,10.4,-,N/A,,Clear,230,2013-10-01 13:15:00
8:34 AM,50.0,42.8,76,29.71,10.0,SW,10.4,-,N/A,,Clear,230,2013-10-01 13:34:00
8:55 AM,51.8,41.0,67,29.72,10.0,SW,11.5,16.1,N/A,,Clear,230,2013-10-01 13:55:00
9:15 AM,53.6,41.0,62,29.73,10.0,WSW,15.0,18.4,N/A,,Clear,250,2013-10-01 14:15:00
9:35 AM,55.4,39.2,54,29.73,10.0,SW,15.0,20.7,N/A,,Clear,230,2013-10-01 14:35:00
9:55 AM,55.4,39.2,54,29.74,10.0,WSW,12.7,21.9,N/A,,Clear,250,2013-10-01 14:55:00
10:15 AM,57.2,39.2,51,29.75,10.0,WSW,13.8,20.7,N/A,,Clear,250,2013-10-01 15:15:00
10:35 AM,57.2,39.2,51,29.75,10.0,West,18.4,25.3,N/A,,Clear,260,2013-10-01 15:35:00
10:55 AM,57.2,39.2,51,29.76,10.0,WSW,19.6,27.6,N/A,,Clear,240,2013-10-01 15:55:00
11:15 AM,59.0,39.2,48,29.76,10.0,WSW,20.7,26.5,N/A,,Clear,240,2013-10-01 16:15:00
11:35 AM,60.8,39.2,45,29.76,10.0,WSW,19.6,24.2,N/A,,Clear,240,2013-10-01 16:35:00
11:55 AM,60.8,37.4,42,29.76,10.0,West,19.6,29.9,N/A,,Clear,260,2013-10-01 16:55:00
12:15 PM,62.6,37.4,39,29.76,10.0,WSW,17.3,26.5,N/A,,Clear,250,2013-10-01 17:15:00
12:35 PM,62.6,37.4,39,29.77,10.0,SW,20.7,26.5,N/A,,Clear,230,2013-10-01 17:35:00
12:55 PM,62.6,37.4,39,29.77,10.0,WSW,17.3,28.8,N/A,,Clear,240,2013-10-01 17:55:00
1:15 PM,64.4,37.4,37,29.78,10.0,WSW,21.9,31.1,N/A,,Clear,240,2013-10-01 18:15:00
1:35 PM,64.4,35.6,34,29.78,10.0,WSW,19.6,26.5,N/A,,Clear,250,2013-10-01 18:35:00
1:55 PM,64.4,35.6,34,29.78,10.0,West,19.6,27.6,N/A,,Clear,260,2013-10-01 18:55:00
2:14 PM,66.2,33.8,30,29.78,10.0,WSW,25.3,32.2,N/A,,Clear,250,2013-10-01 19:14:00
2:35 PM,66.2,35.6,32,29.78,10.0,WSW,19.6,31.1,N/A,,Clear,250,2013-10-01 19:35:00
2:55 PM,66.2,33.8,30,29.78,10.0,WSW,24.2,31.1,N/A,,Clear,240,2013-10-01 19:55:00
3:14 PM,66.2,30.2,26,29.78,10.0,WSW,20.7,32.2,N/A,,Clear,250,2013-10-01 20:14:00
3:35 PM,68.0,32.0,26,29.79,10.0,WSW,19.6,29.9,N/A,,Clear,240,2013-10-01 20:35:00
3:55 PM,68.0,30.2,24,29.79,10.0,West,17.3,28.8,N/A,,Clear,260,2013-10-01 20:55:00
4:14 PM,68.0,30.2,24,29.80,10.0,WSW,19.6,28.8,N/A,,Clear,250,2013-10-01 21:14:00
4:35 PM,68.0,28.4,23,29.80,10.0,West,19.6,29.9,N/A,,Clear,260,2013-10-01 21:35:00
4:55 PM,68.0,30.2,24,29.81,10.0,West,21.9,28.8,N/A,,Clear,260,2013-10-01 21:55:00
5:15 PM,66.2,28.4,24,29.81,10.0,West,20.7,26.5,N/A,,Clear,270,2013-10-01 22:15:00
5:35 PM,66.2,30.2,26,29.82,10.0,West,16.1,29.9,N/A,,Clear,270,2013-10-01 22:35:00
5:55 PM,66.2,30.2,26,29.82,10.0,West,13.8,27.6,N/A,,Clear,260,2013-10-01 22:55:00
6:15 PM,64.4,30.2,28,29.83,10.0,West,15.0,25.3,N/A,,Clear,260,2013-10-01 23:15:00
6:35 PM,64.4,30.2,28,29.83,10.0,West,13.8,19.6,N/A,,Clear,260,2013-10-01 23:35:00
6:54 PM,62.6,30.2,30,29.84,10.0,West,12.7,17.3,N/A,,Clear,270,2013-10-01 23:54:00
7:15 PM,57.2,30.2,36,29.84,10.0,West,6.9,-,N/A,,Clear,260,2013-10-02 00:15:00
7:35 PM,55.4,30.2,38,29.85,10.0,West,5.8,-,N/A,,Clear,260,2013-10-02 00:35:00
7:54 PM,55.4,32.0,41,29.86,10.0,WSW,3.5,-,N/A,,Clear,240,2013-10-02 00:54:00
8:15 PM,51.8,33.8,50,29.87,10.0,SW,6.9,-,N/A,,Clear,220,2013-10-02 01:15:00
8:35 PM,50.0,30.2,47,29.88,10.0,SW,6.9,-,N/A,,Clear,220,2013-10-02 01:35:00
8:54 PM,48.2,32.0,54,29.88,10.0,WSW,4.6,-,N/A,,Clear,240,2013-10-02 01:54:00
9:15 PM,46.4,33.8,62,29.88,10.0,WSW,6.9,-,N/A,,Clear,240,2013-10-02 02:15:00
9:35 PM,48.2,33.8,58,29.89,10.0,SW,5.8,-,N/A,,Clear,230,2013-10-02 02:35:00
9:54 PM,46.4,33.8,62,29.89,10.0,WSW,4.6,-,N/A,,Clear,240,2013-10-02 02:54:00
10:15 PM,44.6,33.8,66,29.90,10.0,SSW,4.6,-,N/A,,Clear,210,2013-10-02 03:15:00
10:35 PM,42.8,33.8,70,29.91,10.0,SSW,6.9,-,N/A,,Clear,210,2013-10-02 03:35:00
10:55 PM,42.8,35.6,76,29.92,10.0,South,6.9,-,N/A,,Clear,190,2013-10-02 03:55:00
11:15 PM,41.0,35.6,81,29.92,10.0,South,8.1,-,N/A,,Clear,180,2013-10-02 04:15:00
11:35 PM,41.0,35.6,81,29.92,10.0,Calm,Calm,-,N/A,,Clear,0,2013-10-02 04:35:00
11:55 PM,39.2,35.6,87,29.93,10.0,South,8.1,-,N/A,,Clear,170,2013-10-02 04:55:00